Location: Newark
(46.1292°N, 1.0086°W)
Time: 09:33:10
(UTC+00:00)

Vanguard 3 - Pass Details

Date: 22 November 2019
Orbit: 508 x 3263 km, 33.3° (Epoch: 10 December)

Event Time Altitude Azimuth Distance (km) Brightness Sun altitude
Rises 12:56:46 0° 231° (SW) 6,538 12.7 22.0°
Reaches altitude 10° 13:01:01 10° 226° (SW) 5,776 12.7 21.8°
Maximum altitude 13:18:28 47° 161° (SSE) 3,943 11.5 20.8°
Drops below altitude 10° 13:35:22 10° 96° (E) 5,627 11.3 19.6°
Sets 13:39:25 0° 90° (E) 6,367 11.5 19.3°
